Date String (YYYY-MM-DD hh:mm:ss) UTC,Instrument flags,absolute air pressure of the measurement (hPa),sample flow rate (lpm),inlet stack bypass flow (lpm),air temperature of the measurement (°C),ambient temperature measured by the external sensor (°C),aerosol sample conditioner tube jacket temperature (°C),OPC LED temperature (°C),internal box temperature (°C),relative humidity of the measurement (%),span deviation,mass concentration of particles derived from Lorenz-Mie calculation of OPC scattering (μg/m³),mass concentration of particles derived from Lorenz-Mie calculation of OPC scattering (μg/m³),mass concentration of particles derived from Lorenz-Mie calculation of OPC scattering (μg/m³)
DateTimeUTC,F1_M11,P_M11,Q1_M11,Q2_M11,T1_M11,T2_M11,T3_M11,T4_M11,T5_M11,U1_M11,ZSPAN_M11,X2_M11,X0_M11,X1_M11
2024-03-21 21:00:00,SystemResetWarning,0823.6,5.01,000.00,026.0,025.4,000.0,034.3,027.8,09.1,0000.0,0003.65,0007.81,0002.90
2024-03-21 21:01:00,SystemResetWarning,0823.7,5.00,000.00,026.0,025.4,000.0,034.3,027.8,09.1,0000.0,0003.63,0007.69,0002.88
2024-03-21 21:02:00,SystemResetWarning,0823.6,4.98,000.00,026.0,025.4,000.0,034.3,027.8,09.3,0000.0,0003.58,0007.60,0002.86
2024-03-21 21:03:00,SystemResetWarning,0823.6,4.99,000.00,026.0,025.4,000.0,034.3,027.8,09.2,0000.0,0003.54,0007.55,0002.84
2024-03-21 21:04:00,SystemResetWarning,0823.6,5.00,000.00,026.0,025.4,000.0,034.3,027.8,09.3,0000.0,0003.49,0007.48,0002.79
2024-03-21 21:05:00,SystemResetWarning,0823.6,5.01,000.00,026.0,025.4,000.0,034.4,027.9,09.2,0000.0,0003.48,0007.62,0002.76
2024-03-21 21:06:00,SystemResetWarning,0823.6,5.02,000.00,026.1,025.5,000.0,034.4,027.9,09.4,0000.0,0003.45,0007.50,0002.74
2024-03-21 21:07:00,SystemResetWarning,0823.6,5.00,000.00,026.1,025.5,000.0,034.4,027.9,08.9,0000.0,0003.40,0006.65,0002.72
2024-03-21 21:08:00,SystemResetWarning,0823.5,4.99,000.00,026.1,025.5,000.0,034.4,027.9,09.4,0000.0,0003.36,0006.04,0002.70
2024-03-21 21:09:00,SystemResetWarning,0823.5,5.00,000.00,026.1,025.5,000.0,034.4,027.9,09.5,0000.0,0003.40,0006.06,0002.71
2024-03-21 21:10:00,SystemResetWarning,0823.6,5.00,000.00,026.1,025.5,000.0,034.4,027.9,09.1,0000.0,0003.40,0006.09,0002.71
2024-03-21 21:11:00,SystemResetWarning,0823.5,5.01,000.00,026.1,025.5,000.0,034.4,027.9,09.5,0000.0,0003.39,0006.10,0002.71
2024-03-21 21:12:00,SystemResetWarning,0823.5,5.00,000.00,026.1,025.5,000.0,034.5,027.9,09.4,0000.0,0003.39,0006.64,0002.71
2024-03-21 21:13:00,SystemResetWarning,0823.4,4.99,000.00,026.1,025.5,000.0,034.5,027.9,09.9,0000.0,0003.42,0007.56,0002.70
2024-03-21 21:14:00,SystemResetWarning,0823.4,4.99,000.00,026.1,025.5,000.0,034.5,027.9,09.7,0000.0,0003.42,0008.19,0002.68
2024-03-21 21:15:00,SystemResetWarning,0823.4,5.01,000.00,026.1,025.5,000.0,034.5,027.9,09.6,0000.0,0003.45,0008.60,0002.67
2024-03-21 21:16:00,SystemResetWarning,0823.4,5.02,000.00,026.2,025.5,000.0,034.5,027.9,09.6,0000.0,0003.46,0008.67,0002.67
2024-03-21 21:17:00,SystemResetWarning,0823.4,4.99,000.00,026.2,025.5,000.0,034.5,027.9,10.1,0000.0,0003.47,0009.39,0002.66
2024-03-21 21:18:00,SystemResetWarning,0823.4,4.99,000.00,026.2,025.5,000.0,034.5,028.0,09.7,0000.0,0003.49,0009.40,0002.67
2024-03-21 21:19:00,SystemResetWarning,0823.4,5.00,000.00,026.2,025.5,000.0,034.5,028.0,09.8,0000.0,0003.51,0009.42,0002.67
2024-03-21 21:20:00,SystemResetWarning,0823.4,5.01,000.00,026.2,025.6,000.0,034.6,028.0,10.2,0000.0,0003.51,0009.46,0002.67
2024-03-21 21:21:00,SystemResetWarning,0823.4,5.00,000.00,026.2,025.6,000.0,034.6,028.0,09.7,0000.0,0003.50,0009.48,0002.65
2024-03-21 21:22:00,SystemResetWarning,0823.5,4.99,000.00,026.2,025.6,000.0,034.6,028.0,09.6,0000.0,0003.51,0009.61,0002.65
2024-03-21 21:23:00,SystemResetWarning,0823.4,4.99,000.00,026.2,025.6,000.0,034.6,028.0,10.3,0000.0,0003.47,0009.31,0002.62
2024-03-21 21:24:00,SystemResetWarning,0823.4,5.00,000.00,026.2,025.6,000.0,034.6,028.0,09.9,0000.0,0003.45,0008.59,0002.59
2024-03-21 21:25:00,SystemResetWarning,0823.4,5.02,000.00,026.2,025.6,000.0,034.6,028.0,09.6,0000.0,0003.43,0008.52,0002.57
2024-03-21 21:26:00,SystemResetWarning,0823.5,4.99,000.00,026.2,025.6,000.0,034.6,028.0,09.7,0000.0,0003.42,0008.44,0002.53
2024-03-21 21:27:00,SystemResetWarning,0823.4,4.99,000.00,026.2,025.6,000.0,034.6,028.0,10.1,0000.0,0003.42,0008.61,0002.50
2024-03-21 21:28:00,SystemResetWarning,0823.4,5.01,000.00,026.2,025.6,000.0,034.6,028.0,09.8,0000.0,0003.38,0007.94,0002.46
2024-03-21 21:29:00,SystemResetWarning,0823.5,5.01,000.00,026.2,025.6,000.0,034.6,028.0,10.2,0000.0,0003.34,0007.75,0002.40
2024-03-21 21:30:00,SystemResetWarning,0823.5,4.99,000.00,026.3,025.6,000.0,034.6,028.0,09.9,0000.0,0003.34,0008.00,0002.34
2024-03-21 21:31:00,SystemResetWarning,0823.5,4.98,000.00,026.3,025.6,000.0,034.6,028.0,09.6,0000.0,0003.29,0008.82,0002.27
2024-03-21 21:32:00,SystemResetWarning,0823.5,5.01,000.00,026.3,025.6,000.0,034.7,028.1,09.7,0000.0,0003.28,0009.50,0002.23
2024-03-21 21:33:00,SystemResetWarning,0823.5,5.01,000.00,026.3,025.6,000.0,034.7,028.1,09.7,0000.0,0003.24,0009.43,0002.18
2024-03-21 21:34:00,SystemResetWarning,0823.5,4.99,000.00,026.3,025.7,000.0,034.7,028.1,10.1,0000.0,0003.19,0009.29,0002.14
2024-03-21 21:35:00,SystemResetWarning,0823.5,5.01,000.00,026.3,025.7,000.0,034.7,028.1,09.3,0000.0,0003.20,0009.28,0002.14
2024-03-21 21:36:00,SystemResetWarning,0823.5,5.02,000.00,026.3,025.7,000.0,034.7,028.1,09.7,0000.0,0003.18,0008.92,0002.15
2024-03-21 21:37:00,SystemResetWarning,0823.5,5.00,000.00,026.3,025.7,000.0,034.7,028.1,09.9,0000.0,0003.20,0008.62,0002.16
2024-03-21 21:38:00,SystemResetWarning,0823.5,4.98,000.00,026.3,025.7,000.0,034.7,028.1,09.8,0000.0,0003.17,0008.19,0002.17
2024-03-21 21:39:00,SystemResetWarning,0823.5,5.01,000.00,026.3,025.7,000.0,034.7,028.1,09.9,0000.0,0003.13,0008.05,0002.15
2024-03-21 21:40:00,SystemResetWarning,0823.5,5.01,000.00,026.3,025.7,000.0,034.7,028.1,09.7,0000.0,0003.11,0008.03,0002.15
2024-03-21 21:41:00,SystemResetWarning,0823.5,5.00,000.00,026.3,025.7,000.0,034.7,028.1,09.8,0000.0,0003.10,0008.60,0002.15
2024-03-21 21:42:00,SystemResetWarning,0823.5,4.99,000.00,026.3,025.7,000.0,034.7,028.1,09.4,0000.0,0003.11,0008.08,0002.16
2024-03-21 21:43:00,SystemResetWarning,0823.5,4.99,000.00,026.4,025.7,000.0,034.7,028.1,10.1,0000.0,0003.09,0007.22,0002.16
2024-03-21 21:44:00,SystemResetWarning,0823.4,4.99,000.00,026.4,025.7,000.0,034.8,028.2,09.9,0000.0,0003.12,0007.41,0002.16
2024-03-21 21:45:00,SystemResetWarning,0823.4,5.01,000.00,026.4,025.7,000.0,034.8,028.2,10.0,0000.0,0003.14,0009.17,0002.15
2024-03-21 21:46:00,SystemResetWarning,0823.5,5.00,000.00,026.4,025.8,000.0,034.8,028.2,09.9,0000.0,0003.10,0009.23,0002.11
2024-03-21 21:47:00,SystemResetWarning,0823.5,5.00,000.00,026.4,025.8,000.0,034.8,028.2,09.5,0000.0,0003.10,0009.39,0002.08
2024-03-21 21:48:00,SystemResetWarning,0823.5,4.99,000.00,026.4,025.8,000.0,034.8,028.2,09.4,0000.0,0003.02,0009.79,0002.04
2024-03-21 21:49:00,SystemResetWarning,0823.5,4.99,000.00,026.4,025.8,000.0,034.8,028.2,09.8,0000.0,0003.00,0009.74,0002.00
2024-03-21 21:50:00,SystemResetWarning,0823.5,5.01,000.00,026.4,025.8,000.0,034.8,028.2,09.8,0000.0,0002.98,0009.72,0001.99
2024-03-21 21:51:00,SystemResetWarning,0823.5,5.01,000.00,026.4,025.8,000.0,034.8,028.2,10.3,0000.0,0003.00,0009.76,0001.99
2024-03-21 21:52:00,SystemResetWarning,0823.5,5.00,000.00,026.4,025.8,000.0,034.8,028.2,10.2,0000.0,0002.98,0009.19,0001.96
2024-03-21 21:53:00,SystemResetWarning,0823.5,4.98,000.00,026.4,025.8,000.0,034.8,028.2,09.6,0000.0,0002.96,0008.81,0001.92
2024-03-21 21:54:00,SystemResetWarning,0823.5,5.01,000.00,026.4,025.8,000.0,034.8,028.2,09.5,0000.0,0002.92,0008.70,0001.89
2024-03-21 21:55:00,SystemResetWarning,0823.5,5.01,000.00,026.5,025.8,000.0,034.9,028.2,09.4,0000.0,0002.87,0008.51,0001.87
2024-03-21 21:56:00,SystemResetWarning,0823.6,5.01,000.00,026.5,025.8,000.0,034.9,028.3,09.2,0000.0,0002.81,0006.85,0001.86
2024-03-21 21:57:00,SystemResetWarning,0823.6,5.00,000.00,026.5,025.8,000.0,034.9,028.3,09.6,0000.0,0002.82,0006.47,0001.85
2024-03-21 21:58:00,SystemResetWarning,0823.6,5.00,000.00,026.5,025.8,000.0,034.9,028.3,09.6,0000.0,0002.84,0006.56,0001.82
2024-03-21 21:59:00,SystemResetWarning,0823.6,4.98,000.00,026.5,025.8,000.0,034.9,028.3,09.5,0000.0,0002.85,0005.75,0001.81
